Time,TemperatureF,DewpointF,PressureIn,WindDirection,WindDirectionDegrees,WindSpeedMPH,WindSpeedGustMPH,Humidity,HourlyPrecipIn,Conditions,Clouds,dailyrainin,SoftwareType,DateUTC
2013-04-06 00:00:00,46.0,42.0,-100.00,North,-999,0.0,3.0,85,-99.99,,,-99.99,,2013-04-06 07:00:00,
2013-04-06 02:02:00,44.0,43.0,-100.00,North,-999,1.0,2.0,96,-99.99,,,-99.99,,2013-04-06 09:02:00,
2013-04-06 03:03:00,43.0,43.0,-100.00,North,-999,1.0,3.0,100,-99.99,,,-99.99,,2013-04-06 10:03:00,
2013-04-06 04:02:00,43.0,43.0,-100.00,North,-999,1.0,3.0,100,-99.99,,,-99.99,,2013-04-06 11:02:00,
2013-04-06 05:00:00,44.0,44.0,-100.00,North,-999,2.0,5.0,100,-99.99,,,-99.99,,2013-04-06 12:00:00,
2013-04-06 05:02:00,43.0,43.0,-100.00,North,-999,1.0,2.0,100,-99.99,,,-99.99,,2013-04-06 12:02:00,
2013-04-06 06:20:00,44.0,44.0,-100.00,North,-999,2.0,7.0,100,-99.99,,,-99.99,,2013-04-06 13:20:00,
2013-04-06 07:00:00,44.0,44.0,-100.00,North,-999,2.0,6.0,100,-99.99,,,-99.99,,2013-04-06 14:00:00,
2013-04-06 07:03:00,44.0,44.0,-100.00,North,-999,2.0,7.0,100,-99.99,,,-99.99,,2013-04-06 14:03:00,
2013-04-06 07:12:00,44.0,44.0,-100.00,North,-999,2.0,7.0,100,-99.99,,,-99.99,,2013-04-06 14:12:00,
2013-04-06 08:00:00,44.0,44.0,-100.00,North,-999,2.0,5.0,100,-99.99,,,-99.99,,2013-04-06 15:00:00,
2013-04-06 09:00:00,46.0,43.0,-100.00,North,-999,0.0,5.0,89,-99.99,,,-99.99,,2013-04-06 16:00:00,
2013-04-06 10:00:00,50.0,42.0,-100.00,North,-999,2.0,3.0,73,-99.99,,,-99.99,,2013-04-06 17:00:00,
2013-04-06 11:00:00,54.0,38.0,-100.00,North,-999,2.0,6.0,54,-99.99,,,-99.99,,2013-04-06 18:00:00,
2013-04-06 12:00:00,56.0,34.0,-100.00,North,-999,2.0,8.0,43,-99.99,,,-99.99,,2013-04-06 19:00:00,
2013-04-06 13:00:00,53.0,33.0,-100.00,North,-999,1.0,5.0,46,-99.99,,,-99.99,,2013-04-06 20:00:00,
2013-04-06 14:00:00,50.0,32.0,-100.00,North,-999,7.0,13.0,49,-99.99,,,-99.99,,2013-04-06 21:00:00,
2013-04-06 15:20:00,54.0,34.0,-100.00,North,-999,0.0,9.0,46,-99.99,,,-99.99,,2013-04-06 22:20:00,
2013-04-06 16:00:00,47.0,35.0,-100.00,North,-999,1.0,2.0,62,-99.99,,,-99.99,,2013-04-06 23:00:00,
2013-04-06 16:03:00,54.0,34.0,-100.00,North,-999,0.0,9.0,46,-99.99,,,-99.99,,2013-04-06 23:03:00,
2013-04-06 16:13:00,54.0,34.0,-100.00,North,-999,0.0,9.0,46,-99.99,,,-99.99,,2013-04-06 23:13:00,
2013-04-06 17:00:00,50.0,33.0,-100.00,North,-999,0.0,7.0,51,-99.99,,,-99.99,,2013-04-07 00:00:00,
2013-04-06 18:20:00,49.0,31.0,-100.00,North,-999,0.0,6.0,49,-99.99,,,-99.99,,2013-04-07 01:20:00,
2013-04-06 19:02:00,49.0,31.0,-100.00,North,-999,0.0,6.0,49,-99.99,,,-99.99,,2013-04-07 02:02:00,
2013-04-06 19:12:00,49.0,31.0,-100.00,North,-999,0.0,6.0,49,-99.99,,,-99.99,,2013-04-07 02:12:00,
2013-04-06 20:20:00,45.0,33.0,-100.00,North,-999,1.0,3.0,62,-99.99,,,-99.99,,2013-04-07 03:20:00,
2013-04-06 21:03:00,45.0,33.0,-100.00,North,-999,1.0,3.0,62,-99.99,,,-99.99,,2013-04-07 04:03:00,
2013-04-06 21:13:00,45.0,33.0,-100.00,North,-999,1.0,3.0,62,-99.99,,,-99.99,,2013-04-07 04:13:00,
2013-04-06 22:00:00,45.0,31.0,-100.00,North,-999,0.0,3.0,57,-99.99,,,-99.99,,2013-04-07 05:00:00,